Regional Weather Roundup
Issued by NWS

Home | Current Version | Previous Version | Graphics & Text | Print | Product List | Glossary On
Versions: 1 2 3 4 5 6 7 8 9 10 11 12 13 14 15 16 17 18 19 20 21 22 23 24 25 26 27 28 29 30 31 32 33 34 35 36 37 38 39 40 41 42 43 44 45 46 47 48 49 50
000
ASUS45 KSLC 312210
RWRUT

UTAH REGIONAL WEATHER ROUNDUP
NATIONAL WEATHER SERVICE SALT LAKE CITY UT
400 PM MDT THU JUL 31 2014

UTZ001>011-023>025-312300-

NORTHERN UTAH

CITY           SKY/WX    TMP DP  RH WIND       PRES   REMARKS
HILL AFB       PTSUNNY   83  51  33 VRB6      30.17F
LOGAN          SUNNY     86  47  25 NW12G17   30.15F
OGDEN          PTSUNNY   87  49  26 W9        30.14F
PROVO AIRPORT  MOSUNNY   82  52  34 NW7       30.14F
SALT LAKE CITY PTSUNNY   84  51  31 NW10G16   30.12F
VERNAL         MOSUNNY   82  45  27 SW7       30.17F
WENDOVER       CLOUDY    79  52  38 W10       30.18F
HEBER CITY     MOSUNNY   81  46  30 CALM      30.20F
WEST JORDAN    SUNNY     82  59  44 N8G17     30.15F

$$

UTZ012>022-026-027-312300-

SOUTHERN UTAH

CITY           SKY/WX    TMP DP  RH WIND       PRES   REMARKS
BRYCE CANYON   PTSUNNY   76  44  32 W10       30.32F
CEDAR CITY     CLOUDY    80  46  30 S13       30.19R
MILFORD        PTSUNNY   88  38  17 MISG      30.11F
MOAB/CYNLANDS  SUNNY     86  49  27 VRB5      30.07F
PRICE          SUNNY     85  42  22 SW9       30.17F
ST GEORGE      PTCLDY   102  46  15 SW17G23   29.93F HX  98
KANAB            N/A     93  39  15 SW14G20   30.11F

$$

REGIONAL REPORTS     COLORADO/ARIZONA

CITY           SKY/WX    TMP DP  RH WIND       PRES   REMARKS
CRAIG, CO      PTSUNNY   72  50  45 NW9       30.23F
GRAND JUNCTION MOSUNNY   85  50  29 NW9       30.10F
RIFLE          MOSUNNY   82  47  29 W8        30.14F
MONTROSE       PTSUNNY   83  52  34 N6        30.19F
CORTEZ         PTSUNNY   84  47  27 NW12G17   30.17F
PAGE, AZ       CLOUDY    98  43  15 N16G25    30.03F HX  94
GRAND CANYON   CLOUDY    78  43  28 SW10      30.27F
KINGMAN        PTSUNNY  100  43  14 W12G23    30.01S HX  96
FLAGSTAFF      TSTM      57  52  83 W6        30.40R

$$

REGIONAL REPORTS    NEVADA/IDAHO/WYOMING

CITY           SKY/WX    TMP DP  RH WIND       PRES   REMARKS
LAS VEGAS, NV  MOSUNNY  108  40  10 SW13G26   29.82F HX 102
ELY            MOSUNNY   80  42  25 NE5       30.25F
ELKO           TSTM      71  53  52 W15       30.19R
POCATELLO, ID  MOSUNNY   89  45  21 N12       30.14F
BURLEY         PTSUNNY   87  39  18 NE7       30.11F
EVANSTON, WY   SUNNY     74  41  30 NE9       30.34S
ROCK SPRINGS   NOT AVBL

$$


USA.gov is the U.S. government's official web portal to all federal, state and local government web resources and services.